Location: Newark
(44.9861°N, 0.2536°E)
Time: 19:46:48
(UTC+00:00)

HuskySat-1 - Pass Details

Date: 17 July 2020
Orbit: 457 x 471 km, 51.6° (Epoch: 11 August)

Event Time Altitude Azimuth Distance (km) Brightness Sun altitude
Rises 21:24:53 0° 224° (SW) 2,494 ? -14.6°
Reaches altitude 10° 21:27:04 10° 219° (SW) 1,618 ? -14.8°
Maximum altitude 21:30:36 49° 144° (SE) 610 ? -15.2°
Drops below altitude 10° 21:34:08 10° 68° (ENE) 1,619 ? -15.6°
Sets 21:36:19 0° 63° (ENE) 2,495 ? -15.8°
